Location: Antin
(43.3330°N, 0.2804°E)
Time: 22:43:15
(UTC+00:00)

Cosmos 1300 - Pass Details

Date: 16 October 2021
Orbit: 509 x 512 km, 82.5° (Epoch: 04 December)

Event Time Altitude Azimuth Distance (km) Brightness Sun altitude
Rises 18:28:16 0° 163° (SSE) 2,612 6.1 -14.3°
Reaches altitude 10° 18:30:34 10° 151° (SSE) 1,731 5.1 -14.7°
Enters shadow 18:33:06 27° 113° (ESE) 1,021 3.6 -15.1°
Exits shadow 18:37:22 - 29° (NNE) 1,804 5.2 -15.9°
Sets 18:39:31 0° 19° (NNE) 2,636 6.1 -16.3°
